Index of /downloads/20140114

[ICO]NameLast modifiedSizeDescription

[DIR]Parent Directory  -  
[   ]dewiki-20140114-page-links.nq.gz26-Jan-2014 20:17 902M 
[   ]dewiki-20140114-page-links.tql.gz26-Jan-2014 20:26 899M 
[   ]dewiki-20140114-page-links.nt.gz26-Jan-2014 20:19 594M 
[   ]dewiki-20140114-page-links.ttl.gz26-Jan-2014 20:22 591M 
[   ]dewiki-20140114-infobox-properties.nq.gz26-Jan-2014 20:14 333M 
[   ]dewiki-20140114-infobox-properties.tql.gz26-Jan-2014 20:15 333M 
[   ]dewiki-20140114-long-abstracts.nq.gz27-Jan-2014 17:54 310M 
[   ]dewiki-20140114-long-abstracts.tql.gz27-Jan-2014 17:54 306M 
[   ]dewiki-20140114-long-abstracts.nt.gz27-Jan-2014 17:53 289M 
[   ]dewiki-20140114-long-abstracts.ttl.gz27-Jan-2014 17:55 285M 
[   ]dewiki-20140114-infobox-properties.nt.gz26-Jan-2014 20:21 230M 
[   ]dewiki-20140114-infobox-properties.ttl.gz26-Jan-2014 20:23 230M 
[   ]dewiki-20140114-short-abstracts.nq.gz27-Jan-2014 17:17 190M 
[   ]dewiki-20140114-short-abstracts.tql.gz27-Jan-2014 17:18 187M 
[   ]dewiki-20140114-short-abstracts.nt.gz27-Jan-2014 17:18 170M 
[   ]dewiki-20140114-short-abstracts.ttl.gz27-Jan-2014 17:18 167M 
[   ]dewiki-20140114-article-categories.nq.gz26-Jan-2014 20:23 140M 
[   ]dewiki-20140114-article-categories.tql.gz26-Jan-2014 20:46 140M 
[   ]dewiki-20140114-wikipedia-links.nq.gz26-Jan-2014 20:14 123M 
[   ]dewiki-20140114-wikipedia-links.tql.gz26-Jan-2014 20:27 122M 
[   ]dewiki-20140114-article-templates.nq.gz26-Jan-2014 20:23 102M 
[   ]dewiki-20140114-article-templates.tql.gz26-Jan-2014 20:18 101M 
[   ]dewiki-20140114-wikipedia-links.nt.gz26-Jan-2014 20:19 84M 
[   ]dewiki-20140114-wikipedia-links.ttl.gz26-Jan-2014 20:26 84M 
[   ]dewiki-20140114-revision-ids.nq.gz26-Jan-2014 20:21 82M 
[   ]dewiki-20140114-revision-ids.tql.gz26-Jan-2014 20:46 82M 
[   ]dewiki-20140114-external-links.tql.gz26-Jan-2014 20:14 82M 
[   ]dewiki-20140114-external-links.nq.gz26-Jan-2014 20:18 82M 
[   ]dewiki-20140114-revision-uris.nq.gz26-Jan-2014 20:20 79M 
[   ]dewiki-20140114-revision-uris.tql.gz26-Jan-2014 20:46 79M 
[   ]dewiki-20140114-page-ids.nq.gz26-Jan-2014 20:20 79M 
[   ]dewiki-20140114-page-ids.tql.gz26-Jan-2014 20:19 79M 
[   ]dewiki-20140114-article-categories.nt.gz26-Jan-2014 20:26 77M 
[   ]dewiki-20140114-article-categories.ttl.gz26-Jan-2014 20:19 76M 
[   ]dewiki-20140114-labels.nq.gz26-Jan-2014 20:13 75M 
[   ]dewiki-20140114-labels.tql.gz26-Jan-2014 20:16 75M 
[   ]dewiki-20140114-mappingbased-properties.nq.gz24-Mar-2014 15:09 73M 
[   ]dewiki-20140114-mappingbased-properties.tql.gz24-Mar-2014 15:09 73M 
[   ]dewiki-20140114-persondata.nq.gz26-Jan-2014 20:14 71M 
[   ]dewiki-20140114-persondata.tql.gz26-Jan-2014 20:20 71M 
[   ]dewiki-20140114-revision-uris.nt.gz26-Jan-2014 20:46 67M 
[   ]dewiki-20140114-revision-uris.ttl.gz26-Jan-2014 20:13 67M 
[   ]dewiki-20140114-external-links.ttl.gz26-Jan-2014 20:46 58M 
[   ]dewiki-20140114-external-links.nt.gz26-Jan-2014 20:15 58M 
[   ]dewiki-20140114-revision-ids.nt.gz26-Jan-2014 20:20 55M 
[   ]dewiki-20140114-revision-ids.ttl.gz26-Jan-2014 20:15 55M 
[   ]dewiki-20140114-images.nq.gz26-Jan-2014 20:22 53M 
[   ]dewiki-20140114-images.tql.gz26-Jan-2014 20:26 53M 
[   ]dewiki-20140114-mappingbased-properties.nt.gz24-Mar-2014 15:09 51M 
[   ]dewiki-20140114-mappingbased-properties.ttl.gz24-Mar-2014 15:09 51M 
[   ]dewiki-20140114-article-templates.nt.gz26-Jan-2014 20:17 50M 
[   ]dewiki-20140114-article-templates.ttl.gz26-Jan-2014 20:24 50M 
[   ]dewiki-20140114-page-ids.nt.gz26-Jan-2014 20:13 48M 
[   ]dewiki-20140114-page-ids.ttl.gz26-Jan-2014 20:17 48M 
[   ]dewiki-20140114-labels.nt.gz26-Jan-2014 20:23 45M 
[   ]dewiki-20140114-labels.ttl.gz26-Jan-2014 20:22 45M 
[   ]dewiki-20140114-persondata.nt.gz26-Jan-2014 20:21 43M 
[   ]dewiki-20140114-persondata.ttl.gz26-Jan-2014 20:21 43M 
[   ]dewiki-20140114-images.nt.gz26-Jan-2014 20:19 41M 
[   ]dewiki-20140114-images.ttl.gz26-Jan-2014 20:27 41M 
[   ]dewiki-20140114-instance-types.nq.gz26-Jan-2014 20:19 37M 
[   ]dewiki-20140114-instance-types.tql.gz26-Jan-2014 20:15 37M 
[   ]dewiki-20140114-redirects.nq.gz26-Jan-2014 20:21 31M 
[   ]dewiki-20140114-redirects.tql.gz26-Jan-2014 20:26 31M 
[   ]dewiki-20140114-instance-types.nt.gz26-Jan-2014 20:23 23M 
[   ]dewiki-20140114-instance-types.ttl.gz26-Jan-2014 20:26 23M 
[   ]dewiki-20140114-redirects.nt.gz26-Jan-2014 20:21 21M 
[   ]dewiki-20140114-redirects.ttl.gz26-Jan-2014 20:15 20M 
[   ]dewiki-20140114-disambiguations.nq.gz26-Jan-2014 20:17 15M 
[   ]dewiki-20140114-disambiguations.tql.gz26-Jan-2014 20:26 15M 
[   ]dewiki-20140114-iri-same-as-uri.nt.gz30-Jan-2014 12:48 13M 
[   ]dewiki-20140114-iri-same-as-uri.ttl.gz30-Jan-2014 12:48 13M 
[   ]dewiki-20140114-skos-categories.nq.gz26-Jan-2014 20:21 12M 
[   ]dewiki-20140114-skos-categories.tql.gz26-Jan-2014 20:23 12M 
[   ]dewiki-20140114-disambiguations.nt.gz26-Jan-2014 20:13 9.3M 
[   ]dewiki-20140114-disambiguations.ttl.gz26-Jan-2014 20:15 9.2M 
[   ]dewiki-20140114-skos-categories.nt.gz26-Jan-2014 20:23 7.6M 
[   ]dewiki-20140114-skos-categories.ttl.gz26-Jan-2014 20:16 7.6M 
[   ]dewiki-20140114-homepages.tql.gz26-Jan-2014 20:15 5.8M 
[   ]dewiki-20140114-homepages.nq.gz26-Jan-2014 20:23 5.8M 
[   ]dewiki-20140114-category-labels.nq.gz26-Jan-2014 20:46 4.8M 
[   ]dewiki-20140114-category-labels.tql.gz26-Jan-2014 20:15 4.8M 
[   ]dewiki-20140114-specific-mappingbased-properties.nq.gz24-Mar-2014 15:09 4.1M 
[   ]dewiki-20140114-specific-mappingbased-properties.tql.gz24-Mar-2014 15:09 4.0M 
[   ]dewiki-20140114-homepages.nt.gz26-Jan-2014 20:19 3.5M 
[   ]dewiki-20140114-homepages.ttl.gz26-Jan-2014 20:20 3.5M 
[   ]dewiki-20140114-category-labels.nt.gz26-Jan-2014 20:18 2.8M 
[   ]dewiki-20140114-category-labels.ttl.gz26-Jan-2014 20:21 2.8M 
[   ]dewiki-20140114-interlanguage-links.nq.gz26-Jan-2014 20:23 2.2M 
[   ]dewiki-20140114-interlanguage-links.tql.gz26-Jan-2014 20:17 2.2M 
[   ]dewiki-20140114-specific-mappingbased-properties.nt.gz24-Mar-2014 15:09 2.2M 
[   ]dewiki-20140114-specific-mappingbased-properties.ttl.gz24-Mar-2014 15:09 2.2M 
[   ]dewiki-20140114-interlanguage-links.nt.gz26-Jan-2014 20:17 1.4M 
[   ]dewiki-20140114-interlanguage-links.ttl.gz26-Jan-2014 20:46 1.4M 
[   ]dewiki-20140114-pnd.nq.gz26-Jan-2014 20:17 1.3M 
[   ]dewiki-20140114-pnd.tql.gz26-Jan-2014 20:27 1.3M 
[   ]dewiki-20140114-pnd.nt.gz26-Jan-2014 20:27 720K 
[   ]dewiki-20140114-pnd.ttl.gz26-Jan-2014 20:21 720K 
[   ]dewiki-20140114-infobox-property-definitions.nq.gz26-Jan-2014 20:21 471K 
[   ]dewiki-20140114-infobox-property-definitions.tql.gz26-Jan-2014 20:27 470K 
[   ]dewiki-20140114-infobox-property-definitions.nt.gz26-Jan-2014 20:46 238K 
[   ]dewiki-20140114-infobox-property-definitions.ttl.gz26-Jan-2014 20:20 237K 
[   ]dewiki-20140114-geo-coordinates.nq.gz26-Jan-2014 20:14 716  
[   ]dewiki-20140114-geo-coordinates.tql.gz26-Jan-2014 20:19 715  
[   ]dewiki-20140114-geo-coordinates.ttl.gz26-Jan-2014 20:13 600  
[   ]dewiki-20140114-geo-coordinates.nt.gz26-Jan-2014 20:19 600  
[   ]dewiki-20140114-infobox-test.ttl.gz26-Jan-2014 20:19 70  
[   ]dewiki-20140114-infobox-test.tql.gz26-Jan-2014 20:26 70  
[   ]dewiki-20140114-infobox-test.nt.gz26-Jan-2014 20:46 70  
[   ]dewiki-20140114-infobox-test.nq.gz26-Jan-2014 20:14 70  

Apache Server at dbmedia.org Port 80